Погода в Ла-Маддалене

Италия     41°12′52″N   9°24′35″E
темп.,
°C
ветер,
м/с
пор.,
м/с
влажн.,
%
обл.,
%
осадки,
мм/ч
давл.,
гПа
погр.,
м
4 декабря, сб
сб401:00+12с336132 0.1 1015753
04:00+12з68675 0.0 1014982
07:00+14з1415639 0.0 10131100
10:00+14з151881100 0.3 10141349
13:00+15з151973100 0.4 10121564
16:00+15з151980100 0.8 10111602
19:00+15зюз1519795 1.5 10101414
22:00+15з14167833 0.6 10091307
5 декабря, вс
вс501:00+15з1416725 1.1 10081424
04:00+13з15176586 0.1 10071735
07:00+13з16176815 0.1 10061555
10:00+13з1619635 0.2 10061854
13:00+13зсз151865100 0.3 10052074
16:00+12зсз13156572 0.5 10031673
19:00+12з101265100 1.6 10041459
22:00+12зсз12145717 0.3 10031981
6 декабря, пн
пн601:00+12з1315585 0.3 10012001
04:00+12ссз1113623 0.2 10011411
07:00+10с66637 0.6 1004959
10:00+12зсз98620 0.1 1005763
13:00+12зсз55545 0.1 10051537
16:00+12сз55555 0.0 10071339
19:00+12ссв22482 0.0 1009969
22:00+12зсз78501 0.0 10101098
7 декабря, вт
вт701:00+13з1314585 0.0 10101383
04:00+13зсз17217678 0.6 10071694
07:00+12зсз18216366 0.8 10091966
10:00+13сз66558 0.0 10101235
13:00+13зсз1312618 0.0 10111340
16:00+13з121258100 0.0 1012873
19:00+13зсз12135660 0.0 10121109
22:00+13зсз11136270 0.0 10131434
8 декабря, ср
ср801:00+13з8975100 0.3 1012944
04:00+12ююз3576100 1.0 1011500
07:00+12ююв4570100 1.1 1010340
10:00+13ю5572100 0.1 1009283
13:00+15зюз377289 0.1 1007489
16:00+16юз687672 0.8 1004699
19:00+15зюз111571100 1.9 10041476
22:00+13зюз10137790 1.9 10031074